Victoria University, British Columbia

10:51 PM PDT on October 17, 2017 (GMT -0700)
Victoria University

Weather History for CWYJ - December, 2012

Change the Weather History Date:

Thursday, December 13, 2012

  Actual Average (CYWH) Record (CYWH)
Temperature  
Mean Temperature 42 °F -  
Max Temperature 45 °F 45 °F 53 °F (2004)
Min Temperature 38 °F 39 °F 26 °F (2008)
Degree Days  
Heating Degree Days 24    
Moisture  
Dew Point 38 °F    
Average Humidity 89    
Maximum Humidity 95    
Minimum Humidity 77    
Precipitation  
Precipitation 0.08 in - - ()
Sea Level Pressure  
Sea Level Pressure 29.92 in    
Wind  
Wind Speed 2 mph ()    
Max Wind Speed 4 mph    
Max Gust Speed -    
Averages and records for this station are not official NWS values.
T = Trace of Precipitation, MM = Missing Value Source: Averaged Metar Reports

Daily Weather History Graph

Daily Weather History Graph

Search for Another Location

Airport or City:

Trip Planner

Search our weather history database for the weather conditions in past years. The results will help you decide how hot, cold, wet, or windy it might be!

Date:

Astronomy

Dec. 13, 2012 Rise Set
Actual Time 7:57 AM PST 4:18 PM PST
Civil Twilight 7:20 AM PST 4:54 PM PST
Nautical Twilight 6:40 AM PST 5:34 PM PST
Astronomical Twilight 6:02 AM PST 6:13 PM PST
Moon 8:09 AM PST (12/13) 5:09 PM PST (12/13)
Length of Visible Light 9h 34m
Length of Day
8h 21m
New Moon, 0% of the Moon is Illuminated
Dec 13
New Moon
Dec 19
First Quarter
Dec 28
Full
Jan 4
Last Quarter
Jan 11
New

Hourly Weather History & Observations

Time (PST) Temp. Windchill Dew Point Humidity Pressure Visibility Wind Dir Wind Speed Gust Speed Precip Events Conditions
12:00 AM 42.1 °F 40.2 °F 37.8 °F 85% 30.02 in - NNE 3.5 mph - N/A   Unknown
1:00 AM 41.7 °F - 37.6 °F 85% 30.03 in - NNE 1.2 mph - N/A   Unknown
2:00 AM 41.2 °F - 38.3 °F 89% 30.03 in - SSE 2.3 mph - N/A   Unknown
3:00 AM 40.1 °F - 37.8 °F 91% 30.04 in - NNW 1.2 mph - N/A   Unknown
4:00 AM 39 °F - 37 °F 92% 30.04 in - Calm Calm - -  
4:00 AM 39.2 °F - 37.4 °F 93% 30.04 in - Calm Calm - N/A   Unknown
5:00 AM 39.4 °F - 37.9 °F 95% 30.02 in - Calm Calm - N/A   Unknown
6:00 AM 39.4 °F - 37.9 °F 95% 30.02 in - Calm Calm - 0.01 in   Unknown
7:00 AM 40.8 °F - 39.2 °F 94% 30.00 in - South 1.2 mph - 0.01 in   Unknown
8:00 AM 42.1 °F - 39.6 °F 91% 29.99 in - SE 1.2 mph - N/A   Unknown
9:00 AM 42.4 °F 40.7 °F 39.2 °F 88% 29.98 in - SSE 3.5 mph - N/A   Unknown
10:00 AM 44 °F - 39 °F 77% 29.97 in - SE 3.5 mph - -  
10:00 AM 43.7 °F 42.1 °F 39.2 °F 84% 29.97 in - SE 3.5 mph - N/A   Unknown
11:00 AM 45.0 °F - 39.6 °F 81% 29.95 in - ESE 2.3 mph - N/A   Unknown
12:00 PM 43.0 °F 41.3 °F 37.0 °F 80% 29.94 in - SSE 3.5 mph - N/A   Unknown
1:00 PM 43.3 °F 41.7 °F 37.8 °F 81% 29.89 in - SE 3.5 mph - N/A   Unknown
2:00 PM 43.0 °F - 38.1 °F 83% 29.86 in - SE 2.3 mph - N/A   Unknown
5:00 PM 39.7 °F - 37.6 °F 92% 29.83 in - West 1.2 mph - 0.01 in   Unknown
6:00 PM 40.1 °F - 38.5 °F 94% 29.81 in - WSW 1.2 mph - 0.02 in   Unknown
7:00 PM 41.4 °F 39.4 °F 39.6 °F 93% 29.79 in - SSE 3.5 mph - 0.02 in   Unknown
8:00 PM 41.5 °F - 39.4 °F 92% 29.77 in - SE 2.3 mph - 0.02 in   Unknown
9:00 PM 41.5 °F 39.6 °F 38.8 °F 90% 29.76 in - SSE 3.5 mph - 0.01 in   Unknown
10:00 PM 41 °F - 39 °F 91% 29.76 in - SSE 2.3 mph - -  
10:00 PM 41.2 °F - 39.2 °F 93% 29.76 in - SSE 2.3 mph - 0.02 in   Unknown
11:00 PM 41.2 °F - 39.6 °F 94% 29.76 in - SSE 2.3 mph - 0.03 in   Unknown